| time (UTC) | temp F | wind direction | speed knots | gust knots | rain 1hr in | rain 24hr in | rain mn in | humidity % | barometer mb |
| 20260507051540 | 58 | 24 | 0.9 | 2.6 | 0.00 | 0.00 | 0.00 | 77 | 1017.3 |
| 20260507050042 | 59 | 333 | 0.9 | 1.7 | 0.00 | 0.00 | 0.00 | 76 | 1017.2 |
| 20260507044532 | 59 | 310 | 0.0 | 0.0 | 0.00 | 0.00 | 0.00 | 75 | 1017.3 |
| 20260507043034 | 60 | 310 | 0.0 | 0.9 | 0.00 | 0.00 | 0.00 | 75 | 1017.2 |
| 20260507041531 | 60 | 310 | 0.0 | 0.9 | 0.00 | 0.00 | 0.00 | 74 | 1017.3 |
| 20260507040034 | 61 | 310 | 0.0 | 1.7 | 0.00 | 0.00 | 0.00 | 73 | 1017.2 |
| 20260507034546 | 61 | 310 | 0.0 | 0.0 | 0.00 | 0.00 | 0.00 | 72 | 1017.1 |
| 20260507033036 | 61 | 310 | 0.0 | 1.7 | 0.00 | 0.00 | 0.00 | 71 | 1016.9 |
| 20260507031524 | 62 | 310 | 0.0 | 0.0 | 0.00 | 0.00 | 0.00 | 70 | 1016.6 |
| 20260507030030 | 62 | 309 | 0.0 | 0.0 | 0.00 | 0.00 | 0.00 | 69 | 1016.5 |
| 20260507024543 | 63 | 310 | 0.0 | 2.6 | 0.00 | 0.00 | 0.00 | 68 | 1016.5 |
| 20260507023027 | 64 | 297 | 2.6 | 5.2 | 0.00 | 0.00 | 0.00 | 65 | 1016.4 |
| 20260507021522 | 64 | 258 | 2.6 | 6.1 | 0.00 | 0.00 | 0.00 | 63 | 1016.4 |
| 20260507020026 | 65 | 261 | 2.6 | 7.0 | 0.00 | 0.00 | 0.00 | 63 | 1016.4 |
| 20260507014541 | 66 | 244 | 3.5 | 7.8 | 0.00 | 0.00 | 0.00 | 60 | 1016.3 |
| 20260507013023 | 66 | 225 | 3.5 | 7.8 | 0.00 | 0.00 | 0.00 | 59 | 1016.3 |
| 20260507011539 | 66 | 317 | 3.5 | 8.7 | 0.00 | 0.00 | 0.00 | 60 | 1016.3 |
| 20260507010040 | 67 | 250 | 4.3 | 7.8 | 0.00 | 0.00 | 0.00 | 58 | 1016.1 |
| 20260507004528 | 68 | 277 | 4.3 | 9.6 | 0.00 | 0.00 | 0.00 | 58 | 1016.1 |
| 20260507003032 | 68 | 329 | 4.3 | 9.6 | 0.00 | 0.00 | 0.00 | 58 | 1016.1 |
| 20260507001528 | 69 | 235 | 4.3 | 7.8 | 0.00 | 0.00 | 0.00 | 58 | 1016.2 |
| 20260507000031 | 69 | 257 | 4.3 | 8.7 | 0.00 | 0.00 | 0.00 | 58 | 1016.2 |
| 20260506234524 | 69 | 279 | 3.5 | 7.8 | 0.00 | 0.00 | 0.00 | 56 | 1016.2 |
| 20260506233026 | 69 | 300 | 6.1 | 9.6 | 0.00 | 0.00 | 0.00 | 56 | 1016.3 |
| 20260506231537 | 69 | 226 | 3.5 | 9.6 | 0.00 | 0.00 | 0.00 | 57 | 1016.4 |
| 20260506230021 | 69 | 265 | 4.3 | 9.6 | 0.00 | 0.00 | 0.00 | 57 | 1016.4 |
| 20260506224634 | 70 | 286 | 5.2 | 9.6 | 0.00 | 0.00 | 0.00 | 55 | 1016.5 |
| 20260506223032 | 69 | 287 | 3.5 | 10.4 | 0.00 | 0.00 | 0.00 | 57 | 1016.6 |
| 20260506221528 | 69 | 281 | 4.3 | 11.3 | 0.00 | 0.00 | 0.00 | 57 | 1016.8 |
| 20260506220032 | 69 | 288 | 4.3 | 10.4 | 0.00 | 0.00 | 0.00 | 58 | 1017.2 |
| 20260506214523 | 70 | 246 | 7.0 | 11.3 | 0.00 | 0.00 | 0.00 | 56 | 1017.3 |
| 20260506213126 | 69 | 246 | 5.2 | 13.0 | 0.00 | 0.00 | 0.00 | 58 | 1017.5 |
| 20260506211540 | 70 | 286 | 6.1 | 9.6 | 0.00 | 0.00 | 0.00 | 58 | 1017.5 |
| 20260506210024 | 71 | 285 | 4.3 | 12.2 | 0.00 | 0.00 | 0.00 | 57 | 1017.5 |
| 20260506204533 | 70 | 236 | 4.3 | 8.7 | 0.00 | 0.00 | 0.00 | 58 | 1017.6 |
| 20260506203026 | 69 | 275 | 6.1 | 12.2 | 0.00 | 0.00 | 0.00 | 60 | 1017.6 |
| 20260506201532 | 69 | 289 | 6.1 | 12.2 | 0.00 | 0.00 | 0.00 | 59 | 1017.9 |
| 20260506200035 | 70 | 313 | 6.1 | 12.2 | 0.00 | 0.00 | 0.00 | 58 | 1018.0 |
| 20260506194535 | 69 | 298 | 4.3 | 11.3 | 0.00 | 0.00 | 0.00 | 57 | 1018.1 |
| 20260506193034 | 69 | 267 | 5.2 | 9.6 | 0.00 | 0.00 | 0.00 | 56 | 1018.2 |
| 20260506191527 | 69 | 321 | 4.3 | 10.4 | 0.00 | 0.00 | 0.00 | 54 | 1018.3 |
| 20260506190033 | 69 | 317 | 4.3 | 11.3 | 0.00 | 0.00 | 0.00 | 54 | 1018.4 |
| 20260506184527 | 68 | 288 | 2.6 | 8.7 | 0.00 | 0.00 | 0.00 | 55 | 1018.5 |
| 20260506183031 | 68 | 249 | 4.3 | 9.6 | 0.00 | 0.00 | 0.00 | 57 | 1018.6 |
| 20260506181524 | 66 | 286 | 3.5 | 7.0 | 0.00 | 0.00 | 0.00 | 58 | 1018.7 |
| 20260506180025 | 66 | 288 | 1.7 | 7.0 | 0.00 | 0.00 | 0.00 | 58 | 1018.9 |
| 20260506174534 | 65 | 269 | 4.3 | 7.8 | 0.00 | 0.00 | 0.00 | 60 | 1018.8 |
| 20260506173038 | 65 | 320 | 2.6 | 8.7 | 0.00 | 0.00 | 0.00 | 61 | 1018.8 |
| 20260506171532 | 64 | 274 | 1.7 | 7.0 | 0.00 | 0.00 | 0.00 | 60 | 1018.9 |
| 20260506170033 | 63 | 296 | 1.7 | 7.8 | 0.00 | 0.00 | 0.00 | 63 | 1018.8 |
| 20260506164530 | 63 | 290 | 3.5 | 6.1 | 0.00 | 0.00 | 0.00 | 63 | 1018.7 |
| 20260506163034 | 63 | 284 | 0.9 | 5.2 | 0.00 | 0.00 | 0.00 | 64 | 1018.6 |
| 20260506161526 | 62 | 277 | 1.7 | 4.3 | 0.00 | 0.00 | 0.00 | 66 | 1018.7 |
| 20260506160030 | 61 | 229 | 1.7 | 6.1 | 0.00 | 0.00 | 0.00 | 69 | 1018.7 |
| 20260506154523 | 59 | 256 | 0.0 | 2.6 | 0.00 | 0.00 | 0.00 | 72 | 1018.7 |
| 20260506153039 | 59 | 277 | 0.9 | 3.5 | 0.00 | 0.00 | 0.00 | 74 | 1018.6 |
| 20260506151534 | 58 | 137 | 0.0 | 2.6 | 0.00 | 0.00 | 0.00 | 81 | 1018.6 |
| 20260506150024 | 56 | 128 | 0.0 | 1.7 | 0.00 | 0.00 | 0.00 | 84 | 1018.7 |
| 20260506144550 | 55 | 127 | 0.9 | 2.6 | 0.00 | 0.00 | 0.00 | 86 | 1018.6 |
| 20260506143048 | 54 | 111 | 0.0 | 2.6 | 0.00 | 0.00 | 0.00 | 87 | 1018.6 |
| 20260506141530 | 52 | 109 | 0.9 | 3.5 | 0.00 | 0.00 | 0.00 | 88 | 1018.6 |
| 20260506140048 | 51 | 107 | 0.0 | 2.6 | 0.00 | 0.00 | 0.00 | 89 | 1018.4 |
| 20260506134532 | 50 | 107 | 0.0 | 0.0 | 0.00 | 0.00 | 0.00 | 89 | 1018.3 |
| 20260506133029 | 50 | 107 | 0.0 | 0.0 | 0.00 | 0.00 | 0.00 | 89 | 1018.3 |
| 20260506131533 | 50 | 107 | 0.0 | 2.6 | 0.00 | 0.00 | 0.00 | 89 | 1018.1 |
| 20260506130143 | 49 | 107 | 0.0 | 2.6 | 0.00 | 0.00 | 0.00 | 89 | 1018.0 |
| 20260506124534 | 49 | 107 | 0.0 | 1.7 | 0.00 | 0.00 | 0.00 | 89 | 1017.9 |
| 20260506123035 | 49 | 107 | 0.9 | 2.6 | 0.00 | 0.00 | 0.00 | 89 | 1017.7 |
| 20260506121530 | 49 | 107 | 0.0 | 0.9 | 0.00 | 0.00 | 0.00 | 88 | 1017.6 |
| 20260506120034 | 49 | 107 | 0.9 | 2.6 | 0.00 | 0.00 | 0.00 | 88 | 1017.7 |
| 20260506114527 | 49 | 108 | 0.9 | 2.6 | 0.00 | 0.00 | 0.00 | 88 | 1017.6 |
| 20260506113037 | 50 | 109 | 0.0 | 0.0 | 0.00 | 0.00 | 0.00 | 88 | 1017.6 |
| 20260506111527 | 50 | 109 | 0.0 | 0.0 | 0.00 | 0.00 | 0.00 | 88 | 1017.5 |
| 20260506110039 | 50 | 109 | 0.0 | 3.5 | 0.00 | 0.00 | 0.00 | 88 | 1017.5 |
| 20260506104527 | 50 | 117 | 0.0 | 0.9 | 0.00 | 0.00 | 0.00 | 88 | 1017.5 |
| 20260506103027 | 50 | 117 | 0.9 | 5.2 | 0.00 | 0.00 | 0.00 | 88 | 1017.5 |
| 20260506101537 | 50 | 114 | 0.0 | 1.7 | 0.00 | 0.00 | 0.00 | 88 | 1017.5 |
| 20260506100025 | 50 | 115 | 0.0 | 0.0 | 0.00 | 0.00 | 0.00 | 88 | 1017.7 |
| 20260506094534 | 50 | 115 | 0.0 | 0.9 | 0.00 | 0.00 | 0.00 | 88 | 1017.8 |
| 20260506093038 | 51 | 115 | 0.0 | 0.0 | 0.00 | 0.00 | 0.00 | 88 | 1017.8 |
| 20260506091533 | 51 | 115 | 0.0 | 0.0 | 0.00 | 0.00 | 0.00 | 88 | 1017.8 |
| 20260506090039 | 51 | 115 | 0.9 | 1.7 | 0.00 | 0.00 | 0.00 | 88 | 1017.9 |
| 20260506084537 | 51 | 115 | 0.0 | 1.7 | 0.00 | 0.00 | 0.00 | 88 | 1017.9 |
| 20260506083033 | 51 | 115 | 0.9 | 2.6 | 0.00 | 0.00 | 0.00 | 88 | 1018.2 |
| 20260506081525 | 52 | 118 | 0.9 | 1.7 | 0.00 | 0.00 | 0.00 | 87 | 1018.2 |
| 20260506073024 | 52 | 136 | 0.9 | 2.6 | 0.00 | 0.00 | 0.00 | 87 | 1018.0 |
| 20260506071537 | 52 | 138 | 0.9 | 2.6 | 0.00 | 0.00 | 0.00 | 86 | 1017.9 |
| 20260506061528 | 53 | 259 | 0.0 | 1.7 | 0.00 | 0.00 | 0.00 | 84 | 1017.2 |